Location: Drochlin
(50.7298°N, 19.6384°E)
Time: 00:04:58
(UTC+00:00)

Daily predictions for brighter satellites

Satellite Brightness Start Highest point End
(mag) Time Altitude Azimuth Time Altitude Azimuth Time Altitude Azimuth
ACS3 Solar Sail 4.5 00:18:55 10° ENE 00:19:36 11° ENE 00:19:36 11° ENE
USA 267 4.3 01:28:17 10° ENE 01:32:57 37° ESE 01:32:57 37° ESE
Cosmos 2278 Rocket 4.2 01:47:56 22° NNE 01:49:04 23° NE 01:53:31 10° E
H-2A R/B 4.3 01:46:18 10° NNE 01:47:35 18° NNE 01:47:35 18° NNE
Cosmos 2333 Rocket 3.6 01:57:29 33° NE 01:57:29 33° NE 02:00:31 10° NNE
COSMOS 2455 3.7 02:01:57 45° NE 02:01:57 45° NE 02:06:07 10° NE
ADEOS II 4.3 01:57:59 10° NNE 01:59:06 17° NNE 01:59:06 17° NNE
ACS3 Solar Sail 2.4 01:59:06 10° NNE 02:03:45 51° NE 02:03:45 51° NE
CENTAUR R/B 4.0 02:05:12 30° NNW 02:06:18 32° N 02:13:39 10° ENE
Resurs 1-4 Rocket 4.5 02:06:30 10° N 02:07:12 14° N 02:07:12 14° N
USA 234 3.5 02:06:11 10° ESE 02:11:31 62° SE 02:11:31 62° SE
Cosmos 2360 Rocket 3.1 02:17:23 44° NNE 02:17:23 44° NNE 02:21:11 10° NNE
Cosmos 2322 Rocket 3.2 02:17:43 41° NNE 02:17:43 41° NNE 02:21:21 10° NNE
SL-16 R/B 3.5 02:24:11 30° N 02:24:11 30° N 02:27:12 10° NNE
Cosmos 44 Rocket 4.3 02:26:24 47° E 02:26:24 47° E 02:30:32 10° ESE
Cosmos 1943 Rocket 3.5 02:24:45 26° N 02:26:51 35° NE 02:31:52 10° ESE
ARGOS 3.7 02:28:14 10° NNE 02:33:35 57° E 02:34:50 46° SSE
Okean 1-7 4.5 02:36:46 34° ENE 02:36:46 34° ENE 02:39:48 10° NNE
Cosmos 1140 Rocket 4.2 02:35:56 42° NNE 02:36:58 48° ENE 02:41:54 10° SE
ADEOS Rocket 3.1 02:32:15 10° NNE 02:38:42 76° WNW 02:38:45 75° WNW
CZ-2C R/B 3.0 02:36:14 10° NNE 02:41:09 56° E 02:42:20 45° SSE
NOSS 3-1 (C) 4.2 02:40:03 30° SSE 02:41:18 35° ESE 02:46:17 10° NE
Cosmos 2100 Rocket 4.4 02:40:22 10° N 02:46:29 61° ENE 02:52:33 10° SSE
SJ 16-02 4.2 02:51:58 10° NNE 02:53:57 13° NE 02:55:57 10° ENE
Cosmos 2219 Rocket 2.0 02:55:06 82° WNW 02:55:09 82° WNW 03:00:53 10° NNE
SL-24 R/B - RUBIN 2 3.9 02:58:34 78° S 02:58:50 82° SE 03:03:46 10° NE
USA 59 Rocket 1.2 03:05:02 29° E 03:05:02 29° E 03:06:59 10° ENE
Cosmos 1707 Rocket 4.3 03:05:39 43° N 03:05:39 43° N 03:08:39 10° N
COSMOS 2428 3.5 02:59:28 10° S 03:04:55 49° ESE 03:10:23 10° NE
Cosmos 1459 Rocket 4.1 03:01:33 10° N 03:07:58 78° E 03:14:19 10° SSE
Cosmos 2322 4.1 03:08:00 17° S 03:12:22 63° ESE 03:17:59 10° NE
IRS P6 4.4 03:07:04 10° NNE 03:12:26 78° WNW 03:14:08 44° SSW
SL-08 RB Rocket 3.6 03:09:37 10° NNE 03:14:13 86° ESE 03:15:42 43° S
CZ-2D R/B 4.2 03:13:42 10° NNW 03:14:23 12° NNW 03:14:23 12° NNW
Cosmos 1727 Rocket 3.8 03:11:12 10° SSW 03:17:23 81° W 03:23:41 10° N
USA 267 3.2 03:11:16 10° ENE 03:17:50 81° NNW 03:20:18 42° WSW
Cosmos 1725 Rocket 4.4 03:11:53 10° N 03:18:11 66° ENE 03:24:28 10° SSE
Cosmos 407 Rocket 4.0 03:14:38 15° NNW 03:18:45 56° ENE 03:23:46 10° SE
Cosmos 1023 Rocket 4.2 03:18:48 48° NW 03:20:11 77° WSW 03:25:13 10° SSE
Cosmos 2333 4.5 03:21:23 46° WNW 03:21:37 46° NW 03:27:11 10° NNE
Cosmos 2150 Rocket 4.1 03:23:19 50° WNW 03:23:19 50° WNW 03:28:27 10° NNE
COSMO-SKYMED 1 3.8 03:19:31 10° SE 03:23:21 38° ENE 03:27:11 10° N
SKYMED 2 4.3 03:19:31 10° SSE 03:23:45 53° ENE 03:28:00 10° N
Cosmos 2228 Rocket 2.9 03:26:01 67° WNW 03:26:01 67° WNW 03:30:21 10° N
Cosmos 1802 Rocket 4.1 03:19:34 10° N 03:26:00 80° E 03:32:18 10° SSE
Cosmos 1980 Rocket 4.3 03:27:56 12° NNW 03:28:19 12° NNW 03:30:18 10° N
H-2A R/B 3.6 03:26:05 10° N 03:28:05 20° NNW 03:28:05 20° NNW
Cosmos 1269 Rocket 4.0 03:29:01 40° NW 03:30:44 61° WSW 03:35:55 10° S
NOSS 2-1 (E) 3.5 03:32:54 39° S 03:33:45 52° SE 03:36:47 10° NE
Cosmos 2278 Rocket 2.1 03:29:49 19° NNW 03:33:58 87° ENE 03:39:39 10° SSE
USA 238 DEB 4.4 03:33:04 29° NW 03:35:04 35° NNW 03:41:32 10° NE
USA 238 4.4 03:33:10 29° NW 03:35:10 35° NNW 03:41:39 10° NE
Cosmos 2173 Rocket 3.8 03:31:11 10° NNW 03:37:14 65° W 03:43:13 10° S
Cosmos 2251 Rocket 4.4 03:32:02 10° NNW 03:37:15 48° ENE 03:42:26 10° SE
Cosmos 2333 Rocket 3.3 03:39:30 26° NW 03:39:43 26° NW 03:44:31 10° NNE
Cosmos 1703 Rocket 3.7 03:36:30 10° S 03:40:50 74° E 03:45:14 10° NNE
Cosmos 2237 Rocket 3.5 03:35:57 10° S 03:41:12 41° ESE 03:46:29 10° NE
ADEOS II 4.1 03:38:56 10° NNW 03:39:55 13° NNW 03:39:55 13° NNW
Cosmos 1328 3.5 03:38:40 10° S 03:42:18 88° E 03:45:59 10° N
Cosmos 1939 Rocket 2.6 03:42:33 10° N 03:46:23 64° WNW 03:48:48 21° SSW
COSMOS 2455 3.6 03:45:06 30° WNW 03:46:31 33° NW 03:51:58 10° NNE
Lacrosse 5 rocket 1.9 03:46:58 31° NNW 03:47:00 31° NNW 03:50:04 10° NE
Cosmos 2292 Rocket 4.3 03:42:59 10° S 03:47:12 62° E 03:52:40 10° NNE
ACS3 Solar Sail 2.6 03:42:41 10° N 03:47:41 28° WNW 03:47:53 28° WNW
Meteor 1-24 Rocket 3.7 03:44:57 10° S 03:50:45 89° WNW 03:56:22 10° NNE
Cosmos 2369 Rocket 4.0 03:46:32 10° NNW 03:51:18 27° NE 03:56:04 10° E
Cosmos 1000 Rocket 4.5 03:46:29 10° SSW 03:52:43 61° WNW 03:59:00 10° N
BlueWalker 3 2.8 03:53:51 29° SW 03:53:51 29° SW 03:57:01 10° SSE
USA 234 4.0 03:50:39 10° S 03:56:21 31° SW 03:58:53 24° W
CZ-4 R/B 4.0 03:51:52 10° NNE 03:56:49 80° ESE 04:01:39 10° SSW
CENTAUR R/B 3.9 03:52:19 14° NW 03:58:51 47° NNE 04:07:31 10° E
Cosmos 2123 Rocket 3.9 03:52:44 10° SSW 03:58:57 75° W 04:05:10 10° N
USA 276 4.1 04:00:15 14° S 04:00:15 14° S 04:01:13 10° S
Cosmos 2360 Rocket 3.3 03:59:09 23° WNW 04:00:10 25° NW 04:04:47 10° NNE
Helios 1A Rocket 2.3 03:56:56 10° S 04:00:18 66° WSW 04:02:41 18° NNW
Cosmos 1782 Rocket 3.5 03:55:56 10° N 04:00:23 89° ENE 04:04:46 10° S
Cosmos 2322 Rocket 3.4 03:59:32 22° NW 04:00:29 23° NW 04:04:58 10° NNE
Meteor 2-5 Rocket 3.7 03:55:41 10° SSW 04:01:36 82° WNW 04:07:30 10° N
Gbstr 26 Del rocket 3.8 03:59:16 21° SW 04:02:40 70° SSE 04:08:48 10° ENE
NOAA 12 4.2 03:58:49 10° NNE 04:04:11 82° ESE 04:09:31 10° SSW
SJ-11-01 4.2 03:59:47 10° N 04:04:27 68° WNW 04:09:06 10° SSW
Cosmos 44 Rocket 4.1 04:05:02 26° W 04:06:46 33° WSW 04:11:21 10° S
SL-16 R/B 3.8 04:06:02 16° NW 04:07:06 16° NNW 04:10:37 10° N
Cosmos 2016 Rocket 4.0 04:02:12 10° NNW 04:08:31 64° W 04:14:45 10° S
Cosmos 374 Rocket 4.4 04:05:55 12° SW 04:09:24 80° SE 04:13:47 10° NE
Cosmos 1943 Rocket 2.3 04:06:17 15° NW 04:10:47 51° WSW 04:16:05 10° S
H-2A R/B 4.2 04:07:58 10° N 04:11:14 27° WNW 04:11:15 27° WNW
Okean 1-7 4.0 04:13:10 24° WNW 04:13:10 24° WNW 04:16:31 10° NNW
ARGOS 4.0 04:08:58 10° N 04:13:30 28° WNW 04:16:17 18° WSW
Cosmos 1908 Rocket 4.1 04:12:02 10° NNW 04:16:05 35° W 04:20:06 10° SSW
NOSS 2-1 (C) 2.9 04:14:58 27° WSW 04:16:27 51° NW 04:19:23 10° NE
Meteor 2-21 Rocket 4.4 04:10:47 10° SSW 04:16:49 59° WNW 04:22:51 10° N
Cosmos 1140 Rocket 4.3 04:15:56 19° WNW 04:18:25 28° W 04:22:44 10° SSW
CZ-2C R/B 3.4 04:14:51 10° N 04:18:54 26° WNW 04:21:33 17° WSW
NOSS 2-1 (D) 3.0 04:19:05 25° W 04:20:31 44° NW 04:23:24 10° NNE
Cosmos 1300 Rocket 3.6 04:16:43 10° NNW 04:20:57 52° W 04:25:09 10° S
ADEOS Rocket 4.4 04:19:01 10° N 04:23:22 20° NW 04:25:40 17° WNW
Aureole 3 Rocket 3.7 04:20:24 10° N 04:24:30 66° E 04:30:08 10° SSE
Cosmos 1812 3.6 04:21:46 10° N 04:24:32 36° ENE 04:27:16 10° SE
Cosmos 2061 Rocket 3.9 04:22:24 10° NNW 04:28:34 67° W 04:34:41 10° S
Iridium 4 Rocket 3.5 04:27:06 10° NNW 04:31:09 37° W 04:35:00 10° SSW
NOSS 3-1 (C) 3.3 04:27:25 13° WSW 04:31:43 52° NW 04:37:41 10° NE
SJ 16-02 1.5 04:28:36 10° NNW 04:32:55 73° ENE 04:37:12 10° SSE
Orbus 7S? 3.7 04:31:56 10° SW 04:37:15 65° SSE 04:40:11 10° ENE
Cosmos 1190 Rocket 4.0 04:33:25 10° NNW 04:38:42 72° WSW 04:43:54 10° SSE
IRS-1D 3.7 04:34:27 10° N 04:39:11 44° WNW 04:43:50 10° SW
SL-16 R/B 4.1 04:34:21 10° S 04:39:28 35° ESE 04:44:35 10° NE
Cosmos 676 Rocket 4.2 04:34:24 10° NNW 04:39:41 77° ENE 04:44:54 10° SSE
Cosmos 2219 Rocket 3.5 04:36:50 14° WNW 04:40:00 22° NW 04:44:22 10° NNE
NOSS 0 Rocket 4.0 04:39:40 10° SW 04:45:43 58° NW 04:51:50 10° NNE
Cosmos 2056 Rocket 4.2 04:40:34 10° S 04:45:53 61° ESE 04:51:13 10° NNE
Cosmos 1869 2.9 04:43:58 10° NNW 04:47:26 61° W 04:50:53 10° S
COSMOS 2428 3.3 04:44:04 10° WSW 04:49:19 37° NW 04:54:37 10° NNE
Okean 2 Rocket 4.1 04:47:11 10° N 04:51:26 47° ENE 04:55:39 10° SSE
Cosmos 371 Rocket 3.3 04:46:46 10° NNW 04:51:39 85° WSW 04:56:29 10° SSE
USA 59 Rocket 0.4 04:50:48 12° W 04:52:58 23° NNW 04:55:25 10° NNE
Cosmos 1954 Rocket 4.0 04:51:39 10° NNW 04:56:49 62° WSW 05:01:53 10° S
COSMO-SKYMED 1 3.5 04:55:22 10° SSW 04:58:47 25° W 05:02:14 10° NW
Thor Agena Rocket 3.9 04:53:53 10° NNE 04:59:10 73° ESE 05:04:20 10° S
USA 267 3.6 04:54:14 10° ENE 05:00:33 53° N 05:06:52 10° W
Cosmos 1484 Rocket 2.7 04:58:32 10° N 05:01:59 47° WNW 05:05:23 10° SW
Cosmos 1371 Rocket 4.2 04:59:02 10° SSW 05:04:18 81° ESE 05:09:40 10° NNE
Aureole 3 4.3 04:58:23 10° SSW 05:04:43 65° WNW 05:10:11 10° N
Cosmos 1980 3.9 05:03:24 10° SW 05:08:53 50° NW 05:14:25 10° NNE
